period_start,C,m1,H,J0,J1,J2,J3,J4,J5,JA,JB,JC,JD,JJ,JK,JN,#
2014-06-10 00:03:03,0.02,1.00,0.00,31.19,35.57,37.75,9.37,41.17,1018.55,2001.88,3023.03,2977.02,3221.48,500.06,484.37,30.54,0000 0000 0000 0000 000000
2014-06-10 00:08:04,-0.02,1.00,0.00,31.22,35.59,37.77,9.35,41.16,1018.55,2001.55,3022.59,2976.93,3221.01,499.89,484.13,30.58,0000 0000 0000 0000 000000
2014-06-10 00:13:05,0.01,1.00,0.00,31.25,35.61,37.79,9.36,41.35,1018.50,2001.36,3022.06,2976.36,3220.77,500.28,484.34,30.63,0000 0000 0000 0000 000000
2014-06-10 00:18:06,0.01,1.00,0.00,31.27,35.63,37.82,9.22,41.11,1018.50,2001.09,3021.68,2976.00,3220.06,499.69,483.68,30.67,0000 0000 0000 0000 000000
2014-06-10 00:23:07,0.00,1.00,0.00,31.29,35.66,37.84,9.42,41.10,1018.48,2001.01,3021.07,2975.97,3219.98,500.25,484.24,30.71,0000 0000 0000 0000 000000
2014-06-10 00:28:08,0.03,1.00,0.00,31.31,35.68,37.86,9.40,41.00,1018.35,2001.00,3020.99,2975.53,3219.64,500.45,484.56,30.75,0000 0000 0000 0000 000000
2014-06-10 00:33:10,0.03,1.00,0.00,31.35,35.70,37.88,9.34,40.95,1018.25,2001.00,3020.61,2975.04,3219.07,500.01,483.81,30.79,0000 0000 0000 0000 000000
2014-06-10 00:38:11,0.01,1.00,0.00,31.38,35.72,37.90,9.23,40.72,1018.19,2001.00,3020.00,2974.88,3218.93,499.43,483.26,30.83,0000 0000 0000 0000 000000
2014-06-10 00:43:12,0.05,1.00,0.00,31.40,35.75,37.93,9.32,40.87,1018.11,2000.99,3019.45,2974.23,3218.25,500.07,483.75,30.88,0000 0000 0000 0000 000000
2014-06-10 00:48:14,0.00,1.00,0.00,31.43,35.77,37.95,9.22,40.90,1018.12,2000.96,3019.00,2974.00,3217.98,499.88,483.53,30.92,0000 0000 0000 0000 000000
2014-06-10 00:53:14,0.03,1.00,0.00,31.46,35.80,37.97,9.28,40.88,1018.16,2000.89,3018.47,2973.68,3217.38,499.83,483.54,30.96,0000 0000 0000 0000 000000
2014-06-10 00:58:15,0.01,1.01,0.00,31.48,35.82,38.00,9.31,41.10,1018.10,2000.80,3018.02,2973.08,3217.02,499.83,483.37,31.00,0000 0000 0000 0000 000000
2014-06-10 01:03:16,0.00,1.01,0.00,31.51,35.84,38.02,9.39,40.90,1018.12,2000.68,3017.77,2972.99,3216.91,500.26,483.81,31.04,0000 0000 0000 0000 000000
2014-06-10 01:08:17,-0.01,1.01,0.00,31.53,35.86,38.04,9.36,41.00,1018.12,2000.21,3017.12,2972.64,3216.18,500.16,483.65,31.09,0000 0000 0000 0000 000000
2014-06-10 01:13:18,0.01,1.01,0.00,31.57,35.89,38.07,9.36,41.17,1018.12,2000.03,3016.80,2972.04,3215.99,500.04,483.38,31.13,0000 0000 0000 0000 000000
2014-06-10 01:18:20,0.02,1.01,0.00,31.61,35.91,38.09,9.22,41.10,1018.12,2000.01,3016.19,2971.99,3215.59,499.71,483.10,31.17,0000 0000 0000 0000 000000
2014-06-10 01:23:21,0.02,1.01,0.00,31.63,35.94,38.11,9.39,41.07,1018.10,2000.00,3016.00,2971.71,3215.04,500.25,483.65,31.21,0000 0000 0000 0000 000000
2014-06-10 01:28:22,0.04,1.01,0.00,31.67,35.97,38.13,9.37,40.93,1018.09,2000.00,3015.50,2971.05,3214.77,500.23,483.51,31.25,0000 0000 0000 0000 000000
2014-06-10 01:33:24,0.02,1.01,0.00,31.70,36.00,38.16,9.36,41.11,1018.11,1999.98,3014.99,2970.88,3214.04,500.19,483.38,31.30,0000 0000 0000 0000 000000
2014-06-10 01:38:25,0.03,1.01,0.00,31.73,36.02,38.18,9.27,40.99,1018.10,1999.97,3014.51,2970.25,3213.96,499.52,482.77,31.34,0000 0000 0000 0000 000000
2014-06-10 01:43:26,-0.00,1.01,0.00,31.76,36.05,38.21,9.39,41.23,1018.09,1999.71,3014.00,2970.00,3213.27,500.29,483.44,31.38,0000 0000 0000 0000 000000
2014-06-10 01:48:27,-0.00,1.01,0.00,31.80,36.07,38.23,9.33,41.62,1018.09,1999.45,3013.53,2969.69,3212.99,500.05,483.13,31.42,0000 0000 0000 0000 000000
2014-06-10 01:53:28,0.00,1.01,0.00,31.83,36.10,38.26,9.27,41.30,1018.08,1999.12,3013.02,2969.07,3212.56,499.70,482.81,31.46,0000 0000 0000 0000 000000
2014-06-10 01:58:29,0.01,1.01,0.00,31.86,36.13,38.29,9.32,41.38,1018.08,1999.02,3012.77,2968.98,3212.04,499.41,482.38,31.51,0000 0000 0000 0000 000000
2014-06-10 02:03:30,0.04,1.01,0.00,31.90,36.16,38.31,9.28,41.29,1018.08,1999.00,3012.09,2968.47,3211.80,500.08,483.08,31.55,0000 0000 0000 0000 000000
2014-06-10 02:08:31,0.02,1.02,0.00,31.94,36.18,38.34,9.24,41.21,1018.08,1999.00,3011.88,2968.02,3211.12,499.90,482.85,31.59,0000 0000 0000 0000 000000
2014-06-10 02:13:32,0.02,1.02,0.00,31.97,36.21,38.37,9.33,41.20,1018.08,1998.97,3011.12,2967.90,3210.93,500.16,482.89,31.63,0000 0000 0000 0000 000000
2014-06-10 02:18:34,0.04,1.02,0.00,32.01,36.24,38.39,9.26,41.38,1018.08,1998.87,3010.67,2967.21,3210.25,500.12,482.84,31.67,0000 0000 0000 0000 000000
2014-06-10 02:23:35,-0.03,1.02,0.00,32.05,36.27,38.42,9.35,41.39,1018.09,1998.56,3010.02,2966.90,3209.87,500.27,482.75,31.71,0000 0000 0000 0000 000000
2014-06-10 02:28:36,0.01,1.02,0.00,32.08,36.30,38.45,9.26,41.26,1018.08,1998.19,3009.74,2966.19,3209.11,499.86,482.43,31.76,0000 0000 0000 0000 000000
2014-06-10 02:33:37,0.01,1.02,0.00,32.11,36.33,38.48,9.34,41.18,1018.08,1998.04,3009.06,2965.91,3208.72,500.31,482.71,31.80,0000 0000 0000 0000 000000
2014-06-10 02:38:38,0.05,1.02,0.00,32.16,36.36,38.51,9.22,41.07,1018.08,1998.00,3008.56,2965.25,3208.05,499.88,482.49,31.84,0000 0000 0000 0000 000000
2014-06-10 02:43:39,0.01,1.02,0.00,32.20,36.39,38.54,9.34,41.35,1018.06,1998.00,3008.01,2965.00,3207.75,500.23,482.63,31.88,0000 0000 0000 0000 000000
2014-06-10 02:48:41,0.03,1.02,0.00,32.24,36.41,38.57,9.24,41.17,1018.02,1997.98,3007.74,2964.63,3207.05,500.13,482.44,31.92,0000 0000 0000 0000 000000
2014-06-10 02:53:42,0.00,1.02,0.00,32.27,36.44,38.60,9.40,41.26,1018.04,1997.82,3007.03,2964.02,3206.82,500.22,482.78,31.97,0000 0000 0000 0000 000000
2014-06-10 02:58:42,-0.00,1.02,0.00,32.32,36.47,38.63,9.30,41.04,1018.07,1997.57,3006.88,2963.91,3206.14,499.85,482.19,32.01,0000 0000 0000 0000 000000
2014-06-10 03:03:44,-0.00,1.02,0.00,32.36,36.50,38.65,9.20,41.28,1018.08,1997.19,3006.14,2963.26,3205.97,499.68,481.87,32.05,0000 0000 0000 0000 000000
2014-06-10 03:08:45,0.00,1.02,0.00,32.39,36.52,38.69,9.24,41.28,1018.07,1997.05,3005.98,2963.00,3205.49,500.21,482.32,32.09,0000 0000 0000 0000 000000
2014-06-10 03:13:46,0.02,1.02,0.00,32.43,36.55,38.72,9.24,41.28,1018.08,1997.01,3005.44,2962.84,3205.03,499.80,481.85,32.13,0000 0000 0000 0000 000000
2014-06-10 03:18:48,0.03,1.03,0.00,32.46,36.58,38.75,9.28,41.27,1018.08,1997.00,3005.00,2962.17,3204.88,500.14,481.95,32.17,0000 0000 0000 0000 000000
2014-06-10 03:23:49,0.03,1.03,0.00,32.50,36.61,38.78,9.35,41.20,1018.08,1996.99,3004.51,2961.99,3204.17,500.26,482.24,32.22,0000 0000 0000 0000 000000
2014-06-10 03:28:50,0.02,1.03,0.00,32.54,36.64,38.81,9.31,41.30,1018.08,1996.92,3003.98,2961.45,3203.96,500.07,482.03,32.26,0000 0000 0000 0000 000000
2014-06-10 03:33:51,0.03,1.03,0.00,32.58,36.67,38.84,9.37,41.17,1018.09,1996.84,3003.37,2961.02,3203.39,500.46,482.31,32.30,0000 0000 0000 0000 000000
2014-06-10 03:38:52,-0.04,1.03,0.00,32.61,36.70,38.87,9.19,40.95,1018.08,1996.47,3003.00,2960.95,3203.01,499.69,481.40,32.34,0000 0000 0000 0000 000000
2014-06-10 03:43:53,0.02,1.03,0.00,32.65,36.73,38.90,9.29,41.11,1018.08,1996.11,3002.52,2960.25,3202.65,500.32,481.73,32.38,0000 0000 0000 0000 000000
2014-06-10 03:48:54,0.01,1.03,0.00,32.68,36.76,38.94,9.23,40.92,1018.08,1996.01,3002.00,2959.96,3202.00,499.83,481.38,32.42,0000 0000 0000 0000 000000
2014-06-10 03:53:55,0.05,1.03,0.00,32.72,36.79,38.97,9.40,40.95,1018.08,1996.00,3001.58,2959.39,3201.43,500.65,482.11,32.47,0000 0000 0000 0000 000000
2014-06-10 03:58:57,0.01,1.03,0.00,32.75,36.82,39.00,9.33,41.07,1018.07,1995.99,3001.03,2959.01,3201.01,500.28,481.78,32.51,0000 0000 0000 0000 000000
2014-06-10 04:03:58,0.02,1.03,0.00,32.77,36.85,39.04,9.30,40.93,1018.04,1995.99,3000.70,2958.88,3200.85,500.09,481.61,32.55,0000 0000 0000 0000 000000
2014-06-10 04:08:59,0.02,1.03,0.00,32.81,36.88,39.06,9.20,40.92,1018.03,1995.87,3000.08,2958.25,3200.16,499.95,481.46,32.59,0000 0000 0000 0000 000000
2014-06-10 04:14:00,-0.03,1.03,0.00,32.84,36.90,39.09,9.31,41.08,1018.04,1995.44,2999.82,2957.98,3199.90,500.15,481.51,32.63,0000 0000 0000 0000 000000
2014-06-10 04:19:02,0.02,1.03,0.00,32.86,36.94,39.13,9.30,41.33,1018.00,1995.12,2999.06,2957.42,3199.15,500.12,481.51,32.67,0000 0000 0000 0000 000000
2014-06-10 04:24:03,0.00,1.03,0.00,32.87,36.96,39.16,9.27,41.23,1018.08,1995.03,2998.90,2957.02,3199.00,500.10,481.44,32.71,0000 0000 0000 0000 000000
2014-06-10 04:29:04,0.03,1.03,0.00,32.90,36.99,39.18,9.25,41.08,1018.08,1995.00,2998.14,2956.89,3198.61,499.80,481.05,32.76,0000 0000 0000 0000 000000
2014-06-10 04:34:05,0.04,1.04,0.00,32.92,37.02,39.21,9.28,41.18,1018.04,1995.00,2997.84,2956.18,3198.03,499.93,481.14,32.80,0000 0000 0000 0000 000000
2014-06-10 04:39:06,0.02,1.04,0.00,32.95,37.05,39.24,9.24,40.91,1018.01,1994.96,2997.08,2955.98,3197.76,499.93,481.19,32.84,0000 0000 0000 0000 000000
2014-06-10 04:44:07,0.02,1.04,0.00,32.97,37.08,39.27,9.31,40.71,1018.00,1994.94,2996.94,2955.71,3197.16,500.12,481.35,32.88,0000 0000 0000 0000 000000
2014-06-10 04:49:08,0.01,1.04,0.00,32.99,37.11,39.30,9.21,40.73,1018.07,1994.76,2996.29,2955.05,3196.97,499.90,481.27,32.92,0000 0000 0000 0000 000000
2014-06-10 04:54:10,-0.03,1.04,0.00,33.02,37.14,39.32,9.16,40.84,1018.07,1994.35,2995.99,2954.97,3196.41,499.94,480.98,32.96,0000 0000 0000 0000 000000
2014-06-10 04:59:11,0.02,1.04,0.00,33.04,37.16,39.34,9.21,40.75,1017.90,1994.06,2995.43,2954.38,3196.00,500.04,481.11,33.01,0000 0000 0000 0000 000000
2014-06-10 05:04:12,0.02,1.04,0.00,33.07,37.19,39.37,9.38,40.84,1017.67,1994.01,2995.00,2954.01,3195.59,500.30,481.07,33.05,0000 0000 0000 0000 000000
2014-06-10 05:09:13,0.03,1.04,0.00,33.07,37.22,39.40,9.29,40.84,1017.66,1994.00,2994.51,2953.77,3195.03,500.37,481.17,33.09,0000 0000 0000 0000 000000
2014-06-10 05:14:14,0.02,1.04,0.00,33.10,37.24,39.42,9.23,40.68,1017.61,1994.00,2994.01,2953.15,3194.90,499.98,480.76,33.13,0000 0000 0000 0000 000000
2014-06-10 05:19:15,0.02,1.04,0.00,33.12,37.27,39.45,9.24,40.83,1017.60,1993.98,2993.57,2952.99,3194.15,499.84,480.60,33.17,0000 0000 0000 0000 000000
2014-06-10 05:24:16,0.01,1.04,0.00,33.12,37.29,39.47,9.19,40.74,1017.59,1993.86,2993.03,2952.70,3193.99,499.90,480.61,33.21,0000 0000 0000 0000 000000
2014-06-10 05:29:17,-0.01,1.04,0.00,33.13,37.31,39.49,9.20,40.83,1017.59,1993.60,2992.86,2952.08,3193.47,500.05,480.85,33.25,0000 0000 0000 0000 000000
2014-06-10 05:34:18,0.00,1.04,0.00,33.15,37.34,39.51,9.24,41.01,1017.55,1993.26,2992.12,2951.97,3193.01,500.02,480.69,33.30,0000 0000 0000 0000 000000
2014-06-10 05:39:19,0.00,1.04,0.00,33.17,37.36,39.53,9.29,40.88,1017.46,1993.05,2992.00,2951.57,3192.90,499.84,480.43,33.34,0000 0000 0000 0000 000000
2014-06-10 05:44:21,0.03,1.04,0.00,33.18,37.38,39.56,9.23,40.96,1017.37,1993.01,2991.79,2951.07,3192.30,500.29,480.82,33.38,0000 0000 0000 0000 000000
2014-06-10 05:49:22,0.02,1.05,0.00,33.20,37.40,39.58,9.30,41.12,1017.16,1993.00,2991.08,2950.96,3192.00,500.17,480.55,33.42,0000 0000 0000 0000 000000
2014-06-10 05:54:23,0.04,1.05,0.00,33.22,37.43,39.60,9.20,40.97,1017.12,1992.99,2990.81,2950.33,3191.55,499.54,480.22,33.46,0000 0000 0000 0000 000000
2014-06-10 05:59:24,0.02,1.05,0.00,33.23,37.45,39.62,9.25,40.80,1017.12,1992.97,2990.10,2950.03,3191.04,500.11,480.45,33.50,0000 0000 0000 0000 000000
2014-06-10 06:04:26,0.00,1.05,0.00,33.25,37.47,39.64,9.28,40.94,1017.13,1992.88,2989.93,2949.97,3190.88,499.88,480.01,33.55,0000 0000 0000 0000 000000
2014-06-10 06:09:27,0.03,1.05,0.00,33.27,37.49,39.66,9.21,40.85,1017.11,1992.71,2989.32,2949.44,3190.26,499.93,480.27,33.59,0000 0000 0000 0000 000000
2014-06-10 06:14:28,-0.03,1.05,0.00,33.28,37.50,39.68,9.27,41.02,1017.11,1992.37,2989.00,2949.01,3190.00,499.98,480.30,33.63,0000 0000 0000 0000 000000
2014-06-10 06:19:29,-0.00,1.05,0.00,33.30,37.53,39.69,9.24,41.11,1017.06,1992.23,2988.74,2948.96,3189.83,500.20,480.47,33.67,0000 0000 0000 0000 000000
2014-06-10 06:24:30,0.04,1.05,0.00,33.31,37.55,39.72,9.24,40.93,1016.99,1992.09,2988.04,2948.24,3189.07,500.05,480.18,33.71,0000 0000 0000 0000 000000
2014-06-10 06:29:32,0.01,1.05,0.00,33.32,37.57,39.74,9.31,40.86,1016.64,1992.01,2987.74,2948.00,3188.83,500.38,480.24,33.75,0000 0000 0000 0000 000000
2014-06-10 06:34:33,0.03,1.05,0.00,33.33,37.59,39.75,9.26,40.84,1016.62,1992.00,2987.08,2947.86,3188.14,500.31,480.36,33.79,0000 0000 0000 0000 000000
2014-06-10 06:39:34,0.03,1.05,0.00,33.35,37.60,39.77,9.27,40.89,1016.62,1992.00,2986.95,2947.20,3188.00,500.13,480.04,33.84,0000 0000 0000 0000 000000
2014-06-10 06:44:35,0.02,1.05,0.00,33.35,37.62,39.79,9.26,40.92,1016.62,1992.00,2986.31,2947.00,3187.84,500.11,480.03,33.88,0000 0000 0000 0000 000000
2014-06-10 06:49:36,0.01,1.06,0.00,33.36,37.64,39.80,9.24,40.92,1016.62,1992.00,2985.99,2946.95,3187.19,500.11,479.97,33.92,0000 0000 0000 0000 000000
2014-06-10 06:54:37,0.05,1.06,0.00,33.38,37.65,39.82,9.17,40.89,1016.62,1991.99,2985.39,2946.28,3186.97,500.01,479.89,33.96,0000 0000 0000 0000 000000
2014-06-10 06:59:39,0.02,1.06,0.00,33.40,37.67,39.84,9.18,40.86,1016.61,1991.98,2984.99,2946.00,3186.52,499.92,479.75,34.00,0000 0000 0000 0000 000000
2014-06-10 07:04:40,0.05,1.06,0.00,33.41,37.68,39.85,9.23,40.79,1016.27,1991.93,2984.16,2945.33,3185.86,499.92,479.59,34.04,0000 0000 0000 0000 000000
2014-06-10 07:09:41,-0.01,1.06,0.00,33.43,37.70,39.87,9.18,40.77,1016.18,1991.74,2983.78,2944.99,3185.10,499.98,479.67,34.09,0000 0000 0000 0000 000000
2014-06-10 07:14:42,0.05,1.06,0.00,33.45,37.72,39.88,9.28,40.89,1016.18,1991.73,2983.06,2944.53,3184.97,500.31,479.51,34.13,0000 0000 0000 0000 000000
2014-06-10 07:19:43,-0.03,1.06,0.00,33.46,37.73,39.89,9.16,40.77,1016.18,1991.27,2982.74,2944.03,3184.21,499.66,479.18,34.17,0000 0000 0000 0000 000000
2014-06-10 07:24:44,0.01,1.06,0.00,33.47,37.75,39.91,9.26,40.83,1016.14,1991.14,2982.05,2943.97,3184.00,500.01,479.43,34.21,0000 0000 0000 0000 000000
2014-06-10 07:29:45,0.02,1.06,0.00,33.49,37.76,39.92,9.31,40.82,1016.13,1991.10,2981.94,2943.64,3183.85,500.59,479.94,34.25,0000 0000 0000 0000 000000
2014-06-10 07:34:46,0.04,1.06,0.00,33.50,37.78,39.93,9.31,40.67,1016.12,1991.07,2981.32,2943.05,3183.19,499.99,479.44,34.29,0000 0000 0000 0000 000000
2014-06-10 07:39:47,-0.00,1.06,0.00,33.50,37.78,39.94,9.29,40.77,1016.11,1991.02,2981.01,2943.00,3183.00,499.96,479.43,34.34,0000 0000 0000 0000 000000
2014-06-10 07:44:49,0.02,1.06,0.00,33.52,37.79,39.94,9.13,40.66,1015.99,1991.00,2980.78,2942.80,3182.75,499.86,479.28,34.38,0000 0000 0000 0000 000000
2014-06-10 07:49:50,0.05,1.07,0.00,33.52,37.80,39.97,9.27,40.69,1015.68,1991.00,2980.07,2942.07,3182.07,500.18,479.36,34.42,0000 0000 0000 0000 000000
2014-06-10 07:54:51,0.00,1.07,0.00,33.52,37.81,39.97,9.28,40.78,1015.65,1991.00,2979.94,2942.00,3181.98,500.47,479.43,34.46,0000 0000 0000 0000 000000
2014-06-10 07:59:52,0.03,1.07,0.00,33.54,37.83,39.98,9.32,41.18,1015.65,1991.00,2979.30,2941.90,3181.70,500.13,479.32,34.50,0000 0000 0000 0000 000000
2014-06-10 08:04:53,0.03,1.07,0.00,33.55,37.83,39.99,9.19,40.99,1015.64,1991.00,2979.00,2941.28,3181.07,499.82,479.05,34.54,0000 0000 0000 0000 000000
2014-06-10 08:09:54,0.01,1.07,0.00,33.56,37.85,39.99,9.19,40.88,1015.64,1990.97,2978.63,2941.02,3180.99,499.92,479.06,34.58,0000 0000 0000 0000 000000
2014-06-10 08:14:56,0.02,1.07,0.00,33.57,37.85,40.00,9.21,40.77,1015.64,1990.98,2978.05,2940.96,3180.68,500.20,479.26,34.63,0000 0000 0000 0000 000000
2014-06-10 08:19:57,0.02,1.07,0.00,33.57,37.86,40.02,9.19,40.63,1015.64,1990.86,2977.92,2940.43,3180.05,499.95,479.04,34.67,0000 0000 0000 0000 000000
2014-06-10 08:24:58,-0.00,1.07,0.00,33.57,37.88,40.02,9.19,40.78,1015.63,1990.63,2977.24,2940.01,3179.96,499.64,478.76,34.71,0000 0000 0000 0000 000000
2014-06-10 08:29:59,0.03,1.07,0.00,33.56,37.88,40.05,9.24,41.08,1015.59,1990.63,2977.01,2940.00,3179.60,499.89,478.95,34.75,0000 0000 0000 0000 000000
2014-06-10 08:35:00,-0.00,1.07,0.00,33.53,37.89,40.07,9.19,40.68,1015.37,1990.47,2976.88,2939.88,3179.11,499.91,479.00,34.79,0000 0000 0000 0000 000000
2014-06-10 08:40:01,0.03,1.07,0.00,33.49,37.89,40.09,9.23,40.80,1015.17,1990.33,2976.14,2939.29,3179.00,499.68,478.92,34.83,0000 0000 0000 0000 000000
2014-06-10 08:45:02,0.00,1.08,0.00,33.44,37.88,40.11,9.19,40.92,1015.15,1990.34,2976.00,2939.04,3178.91,499.72,478.81,34.88,0000 0000 0000 0000 000000
2014-06-10 08:50:03,0.02,1.08,0.00,33.39,37.88,40.17,9.22,40.92,1015.15,1990.33,2975.84,2939.00,3178.57,499.92,478.97,34.92,0000 0000 0000 0000 000000
2014-06-10 08:55:05,0.01,1.08,0.00,33.33,37.86,40.21,9.32,40.98,1015.15,1990.31,2975.11,2938.99,3178.11,500.22,479.48,34.96,0000 0000 0000 0000 000000
2014-06-10 09:00:06,0.02,1.08,0.00,33.27,37.84,40.23,9.21,40.87,1015.15,1990.46,2975.00,2938.93,3178.00,499.98,479.41,35.00,0000 0000 0000 0000 000000
2014-06-10 09:05:07,0.00,1.08,0.00,33.21,37.81,40.20,9.32,41.01,1015.15,1990.44,2974.97,2938.83,3178.00,500.15,479.58,35.04,0000 0000 0000 0000 000000
2014-06-10 09:10:09,0.06,1.08,0.00,33.16,37.78,40.16,9.21,40.93,1015.15,1990.81,2974.74,2938.77,3178.00,499.89,479.46,35.08,0000 0000 0000 0000 000000
2014-06-10 09:15:10,0.01,1.08,0.00,33.12,37.76,40.12,9.35,40.90,1015.15,1990.93,2974.34,2938.73,3177.99,500.47,479.97,35.12,0000 0000 0000 0000 000000
2014-06-10 09:20:11,0.01,1.08,0.00,33.08,37.73,40.04,9.22,40.92,1015.02,1990.98,2974.07,2938.67,3177.99,500.02,479.66,35.17,0000 0000 0000 0000 000000
2014-06-10 09:25:12,0.00,1.08,0.00,33.04,37.69,40.03,9.26,41.22,1014.88,1990.99,2974.00,2938.71,3177.99,500.05,479.55,35.21,0000 0000 0000 0000 000000
2014-06-10 09:30:13,0.00,1.08,0.00,33.00,37.66,39.97,9.30,41.18,1014.77,1990.99,2974.00,2938.54,3177.97,500.35,479.97,35.25,0000 0000 0000 0000 000000
2014-06-10 09:35:14,0.00,1.08,0.00,32.97,37.63,39.93,9.24,40.88,1014.69,1991.03,2973.99,2938.64,3177.97,499.97,479.78,35.29,0000 0000 0000 0000 000000
2014-06-10 09:40:15,0.01,1.08,0.00,32.95,37.60,39.92,9.24,41.00,1014.67,1991.08,2973.96,2938.46,3177.93,499.78,479.40,35.33,0000 0000 0000 0000 000000
2014-06-10 09:45:16,0.05,1.08,0.00,32.91,37.57,39.86,9.36,41.00,1014.66,1991.41,2973.50,2938.40,3177.89,500.47,480.13,35.37,0000 0000 0000 0000 000000
2014-06-10 09:50:17,0.06,1.09,0.00,32.90,37.54,39.84,9.32,40.88,1014.67,1991.76,2973.07,2938.28,3177.84,500.46,480.19,35.42,0000 0000 0000 0000 000000
2014-06-10 09:55:19,0.01,1.09,0.00,32.89,37.51,39.80,9.27,41.07,1014.67,1991.97,2973.00,2938.33,3177.88,500.27,479.95,35.46,0000 0000 0000 0000 000000
2014-06-10 10:00:20,0.00,1.09,0.00,32.86,37.48,39.78,9.24,41.11,1014.66,1991.99,2973.00,2938.26,3177.84,499.71,479.41,35.50,0000 0000 0000 0000 000000
2014-06-10 10:05:21,0.00,1.09,0.00,32.84,37.45,39.73,9.26,40.96,1014.66,1991.99,2972.96,2938.18,3177.68,500.03,479.83,35.54,0000 0000 0000 0000 000000
2014-06-10 10:10:22,0.03,1.09,0.00,32.81,37.43,39.70,9.18,40.83,1014.56,1992.01,2972.47,2938.07,3177.32,499.66,479.54,35.58,0000 0000 0000 0000 000000
2014-06-10 10:15:23,0.01,1.09,0.00,32.79,37.40,39.67,9.28,40.77,1014.57,1992.08,2972.14,2938.06,3177.17,499.91,479.70,35.62,0000 0000 0000 0000 000000
2014-06-10 10:20:24,0.05,1.09,0.00,32.77,37.37,39.64,9.23,40.77,1014.35,1992.37,2972.02,2938.05,3177.14,500.08,479.89,35.66,0000 0000 0000 0000 000000
2014-06-10 10:25:25,0.05,1.09,0.00,32.75,37.35,39.59,9.32,40.93,1014.22,1992.79,2971.98,2938.03,3177.10,500.43,480.13,35.71,0000 0000 0000 0000 000000
2014-06-10 10:30:26,0.02,1.09,0.00,32.75,37.32,39.53,9.24,40.97,1014.18,1992.94,2971.38,2938.00,3177.00,499.89,479.35,35.75,0000 0000 0000 0000 000000
2014-06-10 10:35:27,0.00,1.10,0.00,32.77,37.30,39.41,9.33,40.94,1013.91,1992.99,2971.03,2938.00,3177.00,500.22,479.86,35.79,0000 0000 0000 0000 000000
2014-06-10 10:40:29,0.00,1.10,0.00,32.79,37.28,39.29,9.22,40.73,1013.71,1992.99,2970.99,2937.96,3176.98,500.13,479.57,35.83,0000 0000 0000 0000 000000
2014-06-10 10:45:30,0.02,1.10,0.00,32.82,37.25,39.25,9.17,40.70,1013.69,1993.00,2970.67,2937.86,3176.87,499.88,479.18,35.87,0000 0000 0000 0000 000000
2014-06-10 10:50:31,0.04,1.10,0.00,32.84,37.24,39.23,9.18,40.73,1013.69,1993.04,2970.05,2937.45,3176.52,499.91,479.24,35.91,0000 0000 0000 0000 000000
2014-06-10 10:55:33,0.02,1.10,0.00,32.86,37.23,39.23,9.27,40.75,1013.68,1993.08,2969.98,2937.06,3176.06,500.07,479.61,35.96,0000 0000 0000 0000 000000
2014-06-10 11:00:34,0.03,1.10,0.00,32.87,37.22,39.23,9.34,41.07,1013.65,1993.16,2969.42,2937.01,3176.00,500.49,479.70,36.00,0000 0000 0000 0000 000000
2014-06-10 11:05:35,0.01,1.10,0.00,32.89,37.20,39.23,9.22,41.17,1013.33,1993.21,2969.01,2936.97,3175.90,499.71,478.98,36.04,0000 0000 0000 0000 000000
2014-06-10 11:10:36,0.07,1.10,0.00,32.91,37.20,39.23,9.27,40.94,1013.21,1993.49,2968.77,2936.84,3175.59,500.03,479.19,36.08,0000 0000 0000 0000 000000
2014-06-10 11:15:37,0.05,1.11,0.00,32.91,37.19,39.25,9.20,40.50,1013.20,1993.69,2968.15,2936.31,3175.10,499.96,479.07,36.12,0000 0000 0000 0000 000000
2014-06-10 11:20:39,0.02,1.11,0.00,32.90,37.18,39.25,9.20,40.71,1013.12,1993.79,2967.99,2936.03,3175.00,499.85,478.88,36.16,0000 0000 0000 0000 000000
2014-06-10 11:25:40,0.02,1.11,0.00,32.90,37.18,39.25,9.25,40.49,1012.97,1993.92,2967.69,2936.00,3174.99,500.12,478.82,36.20,0000 0000 0000 0000 000000
2014-06-10 11:30:41,0.02,1.11,0.00,32.90,37.17,39.24,9.24,40.56,1012.75,1993.99,2967.05,2935.99,3174.85,500.01,478.84,36.25,0000 0000 0000 0000 000000
2014-06-10 11:35:42,0.01,1.11,0.00,32.90,37.15,39.25,9.13,40.41,1012.72,1993.99,2966.98,2935.96,3174.52,499.78,478.68,36.29,0000 0000 0000 0000 000000
2014-06-10 11:40:44,0.04,1.11,0.00,32.88,37.15,39.26,9.30,40.73,1012.70,1993.99,2966.37,2935.59,3174.03,499.95,478.85,36.33,0000 0000 0000 0000 000000
2014-06-10 11:45:45,0.02,1.11,0.00,32.86,37.14,39.26,9.24,40.58,1012.71,1993.99,2965.99,2935.03,3173.83,500.04,478.90,36.37,0000 0000 0000 0000 000000
2014-06-10 11:50:46,0.03,1.11,0.00,32.83,37.13,39.25,9.24,40.57,1012.65,1993.99,2965.33,2934.96,3173.15,500.17,479.04,36.41,0000 0000 0000 0000 000000
2014-06-10 11:55:47,0.01,1.11,0.00,32.79,37.12,39.25,9.22,40.98,1012.55,1993.99,2965.00,2934.62,3173.00,500.02,479.00,36.45,0000 0000 0000 0000 000000
2014-06-10 12:00:48,0.02,1.12,0.00,32.75,37.10,39.28,9.25,40.83,1012.44,1993.99,2964.84,2934.16,3172.99,500.12,479.08,36.50,0000 0000 0000 0000 000000
2014-06-10 12:05:50,0.02,1.12,0.00,32.70,37.10,39.31,9.19,40.73,1012.26,1994.00,2964.10,2934.01,3172.76,499.66,478.59,36.54,0000 0000 0000 0000 000000
2014-06-10 12:10:51,0.01,1.12,0.00,32.65,37.08,39.33,9.24,40.76,1012.24,1994.03,2963.98,2934.00,3172.21,499.89,478.76,36.58,0000 0000 0000 0000 000000
2014-06-10 12:15:52,0.02,1.12,0.00,32.61,37.06,39.34,9.26,40.81,1012.24,1994.05,2963.51,2933.97,3172.01,500.35,479.20,36.62,0000 0000 0000 0000 000000
2014-06-10 12:20:53,0.03,1.12,0.00,32.59,37.05,39.34,9.21,40.80,1012.22,1994.17,2963.02,2933.82,3172.00,500.02,479.28,36.66,0000 0000 0000 0000 000000
2014-06-10 12:25:54,0.04,1.12,0.00,32.54,37.03,39.32,9.20,40.56,1012.18,1994.47,2962.97,2933.60,3171.99,499.65,478.91,36.70,0000 0000 0000 0000 000000
2014-06-10 12:30:55,0.06,1.12,0.00,32.51,37.01,39.31,9.16,40.72,1011.97,1994.70,2962.41,2933.10,3171.79,499.97,478.86,36.74,0000 0000 0000 0000 000000
2014-06-10 12:35:56,0.03,1.13,0.00,32.49,36.99,39.30,9.16,40.81,1011.75,1994.88,2962.00,2933.00,3171.25,499.83,478.80,36.79,0000 0000 0000 0000 000000
2014-06-10 12:40:57,0.01,1.13,0.00,32.46,36.98,39.30,9.19,40.74,1011.72,1994.96,2961.94,2933.00,3171.06,499.67,478.68,36.83,0000 0000 0000 0000 000000
2014-06-10 12:45:58,0.01,1.13,0.00,32.43,36.95,39.26,9.22,40.85,1011.64,1994.99,2961.40,2933.00,3171.00,500.00,478.97,36.87,0000 0000 0000 0000 000000
2014-06-10 12:50:59,0.00,1.13,0.00,32.40,36.94,39.23,9.21,40.83,1011.38,1994.99,2961.02,2932.96,3171.00,499.90,478.92,36.91,0000 0000 0000 0000 000000
2014-06-10 12:56:01,0.01,1.13,0.00,32.40,36.92,39.24,9.23,40.84,1011.28,1994.99,2960.86,2932.75,3170.95,499.75,478.74,36.95,0000 0000 0000 0000 000000
2014-06-10 13:01:02,0.04,1.13,0.00,32.37,36.90,39.22,9.28,40.88,1011.26,1995.00,2960.15,2932.20,3170.48,500.08,478.90,36.99,0000 0000 0000 0000 000000